| time (UTC) | temp F | wind direction | speed knots | gust knots | rain 1hr in | rain 24hr in | rain mn in | humidity % | barometer mb |
| 20260901081051 | 69 | 292 | 1.7 | 6.1 | 0.00 | 0.00 | 0.00 | 25 | 1013.8 |
| 20260901080549 | 69 | 285 | 0.9 | 4.3 | 0.00 | 0.00 | 0.00 | 25 | 1013.8 |
| 20260901080140 | 69 | 290 | 0.9 | 3.5 | 0.00 | 0.00 | 0.00 | 25 | 1013.9 |
| 20260901075550 | 69 | 294 | 0.0 | 3.5 | 0.00 | 0.00 | 0.00 | 25 | 1013.9 |
| 20260901075046 | 70 | 340 | 0.9 | 6.1 | 0.00 | 0.00 | 0.00 | 25 | 1013.8 |
| 20260901074545 | 70 | 340 | 0.9 | 7.8 | 0.00 | 0.00 | 0.00 | 24 | 1013.8 |
| 20260901074045 | 71 | 312 | 2.6 | 7.8 | 0.00 | 0.00 | 0.00 | 25 | 1013.8 |
| 20260901073544 | 71 | 267 | 0.9 | 11.3 | 0.00 | 0.00 | 0.00 | 25 | 1013.7 |
| 20260901073044 | 71 | 306 | 6.1 | 12.2 | 0.00 | 0.00 | 0.00 | 25 | 1013.7 |
| 20260901072544 | 72 | 273 | 5.2 | 12.2 | 0.00 | 0.00 | 0.00 | 24 | 1013.8 |
| 20260901072047 | 71 | 273 | 5.2 | 11.3 | 0.00 | 0.00 | 0.00 | 24 | 1014.0 |
| 20260901071542 | 72 | 272 | 2.6 | 10.4 | 0.00 | 0.00 | 0.00 | 24 | 1013.8 |
| 20260901071041 | 72 | 254 | 5.2 | 10.4 | 0.00 | 0.00 | 0.00 | 24 | 1013.8 |
| 20260901070539 | 72 | 263 | 6.1 | 9.6 | 0.00 | 0.00 | 0.00 | 24 | 1013.8 |
| 20260901070038 | 72 | 290 | 4.3 | 12.2 | 0.00 | 0.00 | 0.00 | 24 | 1013.8 |
| 20260901065539 | 72 | 265 | 4.3 | 13.9 | 0.00 | 0.00 | 0.00 | 24 | 1013.7 |
| 20260901065037 | 72 | 265 | 7.8 | 15.6 | 0.00 | 0.00 | 0.00 | 23 | 1013.7 |
| 20260901064537 | 72 | 271 | 7.8 | 13.9 | 0.00 | 0.00 | 0.00 | 24 | 1013.7 |
| 20260901064037 | 73 | 294 | 6.1 | 12.2 | 0.00 | 0.00 | 0.00 | 23 | 1013.6 |
| 20260901063538 | 73 | 287 | 5.2 | 10.4 | 0.00 | 0.00 | 0.00 | 23 | 1013.7 |
| 20260901063052 | 73 | 284 | 6.1 | 11.3 | 0.00 | 0.00 | 0.00 | 23 | 1013.7 |
| 20260901062536 | 72 | 284 | 5.2 | 9.6 | 0.00 | 0.00 | 0.00 | 23 | 1013.7 |
| 20260901062036 | 73 | 304 | 3.5 | 7.8 | 0.00 | 0.00 | 0.00 | 23 | 1013.7 |
| 20260901061543 | 73 | 266 | 1.7 | 7.8 | 0.00 | 0.00 | 0.00 | 23 | 1013.7 |
| 20260901061036 | 73 | 284 | 2.6 | 7.8 | 0.00 | 0.00 | 0.00 | 23 | 1013.8 |
| 20260901060538 | 73 | 282 | 1.7 | 9.6 | 0.00 | 0.00 | 0.00 | 23 | 1013.7 |
| 20260901060037 | 73 | 201 | 1.7 | 9.6 | 0.00 | 0.00 | 0.00 | 23 | 1013.9 |
| 20260901055536 | 73 | 257 | 4.3 | 8.7 | 0.00 | 0.00 | 0.00 | 23 | 1013.9 |
| 20260901055036 | 73 | 267 | 3.5 | 9.6 | 0.00 | 0.00 | 0.00 | 23 | 1013.9 |
| 20260901054541 | 73 | 229 | 5.2 | 12.2 | 0.00 | 0.00 | 0.00 | 23 | 1013.9 |
| 20260901054036 | 73 | 270 | 5.2 | 11.3 | 0.00 | 0.00 | 0.00 | 23 | 1013.9 |
| 20260901053535 | 74 | 236 | 4.3 | 12.2 | 0.00 | 0.00 | 0.00 | 23 | 1013.9 |
| 20260901053038 | 74 | 240 | 4.3 | 12.2 | 0.00 | 0.00 | 0.00 | 23 | 1013.9 |
| 20260901052533 | 74 | 250 | 2.6 | 10.4 | 0.00 | 0.00 | 0.00 | 23 | 1013.8 |
| 20260901052033 | 74 | 237 | 0.9 | 10.4 | 0.00 | 0.00 | 0.00 | 23 | 1013.8 |
| 20260901051533 | 74 | 304 | 0.9 | 8.7 | 0.00 | 0.00 | 0.00 | 22 | 1013.7 |
| 20260901051033 | 74 | 323 | 3.5 | 8.7 | 0.00 | 0.00 | 0.00 | 22 | 1013.7 |
| 20260901050534 | 74 | 340 | 2.6 | 7.8 | 0.00 | 0.00 | 0.00 | 22 | 1013.6 |
| 20260901050034 | 74 | 254 | 1.7 | 7.8 | 0.00 | 0.00 | 0.00 | 22 | 1013.7 |
| 20260901045537 | 75 | 267 | 0.9 | 8.7 | 0.00 | 0.00 | 0.00 | 22 | 1013.7 |
| 20260901045032 | 75 | 277 | 3.5 | 10.4 | 0.00 | 0.00 | 0.00 | 22 | 1013.6 |
| 20260901044534 | 75 | 360 | 1.7 | 7.8 | 0.00 | 0.00 | 0.00 | 22 | 1013.6 |
| 20260901044032 | 75 | 256 | 0.9 | 7.0 | 0.00 | 0.00 | 0.00 | 22 | 1013.6 |
| 20260901043533 | 75 | 287 | 2.6 | 14.8 | 0.00 | 0.00 | 0.00 | 22 | 1013.5 |
| 20260901043034 | 75 | 200 | 6.1 | 14.8 | 0.00 | 0.00 | 0.00 | 21 | 1013.4 |
| 20260901042532 | 75 | 257 | 6.1 | 12.2 | 0.00 | 0.00 | 0.00 | 21 | 1013.3 |
| 20260901042032 | 76 | 275 | 6.1 | 12.2 | 0.00 | 0.00 | 0.00 | 21 | 1013.3 |
| 20260901041535 | 76 | 215 | 6.1 | 13.9 | 0.00 | 0.00 | 0.00 | 21 | 1013.1 |
| 20260901041031 | 76 | 271 | 6.1 | 13.9 | 0.00 | 0.00 | 0.00 | 21 | 1013.1 |
| 20260901040531 | 76 | 262 | 7.0 | 17.4 | 0.00 | 0.00 | 0.00 | 21 | 1013.0 |
| 20260901040037 | 76 | 267 | 6.1 | 17.4 | 0.00 | 0.00 | 0.00 | 21 | 1013.0 |
| 20260901035630 | 76 | 271 | 7.8 | 13.9 | 0.00 | 0.00 | 0.00 | 21 | 1013.1 |
| 20260901035030 | 77 | 239 | 7.0 | 13.9 | 0.00 | 0.00 | 0.00 | 21 | 1013.0 |
| 20260901034530 | 77 | 229 | 4.3 | 13.9 | 0.00 | 0.00 | 0.00 | 21 | 1013.0 |
| 20260901034029 | 77 | 263 | 7.0 | 13.9 | 0.00 | 0.00 | 0.00 | 21 | 1012.8 |
| 20260901033529 | 77 | 251 | 7.0 | 13.9 | 0.00 | 0.00 | 0.00 | 21 | 1012.8 |
| 20260901033030 | 77 | 242 | 7.0 | 13.9 | 0.00 | 0.00 | 0.00 | 21 | 1012.8 |
| 20260901032530 | 77 | 284 | 5.2 | 10.4 | 0.00 | 0.00 | 0.00 | 21 | 1012.7 |
| 20260901032028 | 77 | 244 | 7.0 | 14.8 | 0.00 | 0.00 | 0.00 | 21 | 1012.7 |
| 20260901031529 | 77 | 292 | 8.7 | 15.6 | 0.00 | 0.00 | 0.00 | 21 | 1012.7 |
| 20260901031029 | 78 | 258 | 7.8 | 13.9 | 0.00 | 0.00 | 0.00 | 21 | 1012.7 |
| 20260901030528 | 78 | 222 | 7.0 | 15.6 | 0.00 | 0.00 | 0.00 | 20 | 1012.7 |
| 20260901030032 | 78 | 229 | 7.8 | 14.8 | 0.00 | 0.00 | 0.00 | 20 | 1012.7 |
| 20260901025528 | 78 | 264 | 4.3 | 13.9 | 0.00 | 0.00 | 0.00 | 20 | 1012.7 |
| 20260901025028 | 79 | 213 | 4.3 | 13.9 | 0.00 | 0.00 | 0.00 | 20 | 1012.8 |
| 20260901024532 | 79 | 276 | 5.2 | 13.9 | 0.00 | 0.00 | 0.00 | 20 | 1012.7 |
| 20260901024030 | 79 | 234 | 7.8 | 20.0 | 0.00 | 0.00 | 0.00 | 20 | 1012.6 |
| 20260901023526 | 80 | 281 | 9.6 | 18.2 | 0.00 | 0.00 | 0.00 | 19 | 1012.6 |
| 20260901023028 | 80 | 286 | 6.1 | 15.6 | 0.00 | 0.00 | 0.00 | 18 | 1012.6 |
| 20260901022528 | 81 | 248 | 5.2 | 12.2 | 0.00 | 0.00 | 0.00 | 17 | 1012.5 |
| 20260901022026 | 81 | 267 | 6.1 | 12.2 | 0.00 | 0.00 | 0.00 | 16 | 1012.4 |
| 20260901021529 | 81 | 262 | 7.0 | 16.5 | 0.00 | 0.00 | 0.00 | 16 | 1012.3 |
| 20260901021026 | 82 | 290 | 8.7 | 16.5 | 0.00 | 0.00 | 0.00 | 16 | 1012.3 |
| 20260901020526 | 82 | 275 | 7.8 | 15.6 | 0.00 | 0.00 | 0.00 | 16 | 1012.1 |
| 20260901020034 | 82 | 298 | 7.0 | 17.4 | 0.00 | 0.00 | 0.00 | 16 | 1012.1 |
| 20260901015526 | 83 | 279 | 8.7 | 17.4 | 0.00 | 0.00 | 0.00 | 16 | 1012.0 |
| 20260901015025 | 83 | 281 | 7.0 | 17.4 | 0.00 | 0.00 | 0.00 | 16 | 1012.0 |
| 20260901014525 | 84 | 278 | 7.8 | 15.6 | 0.00 | 0.00 | 0.00 | 15 | 1012.0 |
| 20260901014025 | 84 | 342 | 5.2 | 13.9 | 0.00 | 0.00 | 0.00 | 15 | 1011.9 |
| 20260901013525 | 84 | 272 | 7.8 | 16.5 | 0.00 | 0.00 | 0.00 | 15 | 1011.9 |
| 20260901013025 | 85 | 284 | 6.1 | 14.8 | 0.00 | 0.00 | 0.00 | 15 | 1011.8 |
| 20260901012528 | 85 | 285 | 7.8 | 14.8 | 0.00 | 0.00 | 0.00 | 14 | 1011.8 |
| 20260901012026 | 86 | 292 | 7.8 | 14.8 | 0.00 | 0.00 | 0.00 | 14 | 1011.8 |
| 20260901011528 | 86 | 332 | 6.1 | 15.6 | 0.00 | 0.00 | 0.00 | 14 | 1011.7 |
| 20260901011027 | 87 | 298 | 5.2 | 15.6 | 0.00 | 0.00 | 0.00 | 13 | 1011.7 |
| 20260901010525 | 88 | 313 | 4.3 | 10.4 | 0.00 | 0.00 | 0.00 | 12 | 1011.5 |
| 20260901010024 | 88 | 341 | 2.6 | 11.3 | 0.00 | 0.00 | 0.00 | 12 | 1011.6 |
| 20260901005524 | 87 | 192 | 5.2 | 11.3 | 0.00 | 0.00 | 0.00 | 12 | 1011.6 |
| 20260901005026 | 88 | 151 | 6.1 | 12.2 | 0.00 | 0.00 | 0.00 | 12 | 1011.5 |
| 20260901004522 | 88 | 184 | 6.1 | 13.0 | 0.00 | 0.00 | 0.00 | 12 | 1011.5 |
| 20260901004022 | 88 | 229 | 7.0 | 13.0 | 0.00 | 0.00 | 0.00 | 11 | 1011.6 |
| 20260901003521 | 88 | 229 | 6.1 | 9.6 | 0.00 | 0.00 | 0.00 | 11 | 1011.5 |
| 20260901003028 | 89 | 244 | 2.6 | 7.8 | 0.00 | 0.00 | 0.00 | 11 | 1011.6 |
| 20260901002521 | 89 | 236 | 2.6 | 15.6 | 0.00 | 0.00 | 0.00 | 11 | 1011.6 |
| 20260901002026 | 89 | 275 | 6.1 | 15.6 | 0.00 | 0.00 | 0.00 | 11 | 1011.7 |
| 20260901001525 | 89 | 226 | 5.2 | 13.0 | 0.00 | 0.00 | 0.00 | 11 | 1011.8 |
| 20260901001020 | 89 | 202 | 6.1 | 13.0 | 0.00 | 0.00 | 0.00 | 11 | 1011.8 |
| 20260901000520 | 89 | 188 | 3.5 | 8.7 | 0.00 | 0.00 | 0.00 | 11 | 1011.8 |
| 20260901000021 | 89 | 207 | 4.3 | 8.7 | 0.00 | 0.00 | 0.00 | 11 | 1011.8 |
| 20260831235518 | 90 | 235 | 4.3 | 10.4 | 0.00 | 0.00 | 0.00 | 11 | 1011.9 |
| 20260831235020 | 90 | 321 | 3.5 | 10.4 | 0.00 | 0.00 | 0.00 | 11 | 1012.0 |
| 20260831234517 | 90 | 301 | 2.6 | 11.3 | 0.00 | 0.00 | 0.00 | 11 | 1012.1 |
| 20260831234016 | 90 | 280 | 6.1 | 9.6 | 0.00 | 0.00 | 0.00 | 11 | 1012.1 |
| 20260831233516 | 90 | 237 | 2.6 | 6.1 | 0.00 | 0.00 | 0.00 | 10 | 1012.2 |
| 20260831233015 | 90 | 163 | 1.7 | 6.1 | 0.00 | 0.00 | 0.00 | 10 | 1012.1 |
| 20260831232515 | 90 | 223 | 1.7 | 7.8 | 0.00 | 0.00 | 0.00 | 11 | 1012.1 |
| 20260831232014 | 91 | 263 | 3.5 | 8.7 | 0.00 | 0.00 | 0.00 | 10 | 1012.1 |
| 20260831231523 | 94 | 202 | 3.5 | 8.7 | 0.00 | 0.00 | 0.00 | 10 | 1012.2 |
| 20260831231013 | 93 | 323 | 1.7 | 7.0 | 0.00 | 0.00 | 0.00 | 9 | 1012.3 |
| 20260831230517 | 92 | 40 | 2.6 | 4.3 | 0.00 | 0.00 | 0.00 | 10 | 1012.3 |
| 20260831230012 | 91 | 263 | 0.9 | 5.2 | 0.00 | 0.00 | 0.00 | 10 | 1012.4 |
| 20260831225511 | 91 | 105 | 1.7 | 7.8 | 0.00 | 0.00 | 0.00 | 10 | 1012.5 |
| 20260831225010 | 92 | 139 | 2.6 | 7.8 | 0.00 | 0.00 | 0.00 | 10 | 1012.7 |
| 20260831224528 | 91 | 5 | 1.7 | 8.7 | 0.00 | 0.00 | 0.00 | 10 | 1012.7 |
| 20260831224013 | 91 | 346 | 2.6 | 8.7 | 0.00 | 0.00 | 0.00 | 10 | 1012.8 |
| 20260831223509 | 90 | 5 | 3.5 | 9.6 | 0.00 | 0.00 | 0.00 | 10 | 1012.9 |
| 20260831223007 | 89 | 355 | 5.2 | 9.6 | 0.00 | 0.00 | 0.00 | 10 | 1013.0 |
| 20260831222507 | 89 | 286 | 3.5 | 12.2 | 0.00 | 0.00 | 0.00 | 10 | 1013.1 |
| 20260831222007 | 89 | 360 | 3.5 | 12.2 | 0.00 | 0.00 | 0.00 | 11 | 1013.1 |
| 20260831221506 | 91 | 258 | 6.1 | 10.4 | 0.00 | 0.00 | 0.00 | 10 | 1013.2 |
| 20260831221005 | 92 | 350 | 3.5 | 9.6 | 0.00 | 0.00 | 0.00 | 10 | 1013.2 |
| 20260831220505 | 91 | 360 | 2.6 | 8.7 | 0.00 | 0.00 | 0.00 | 10 | 1013.4 |
| 20260831220004 | 92 | 278 | 5.2 | 8.7 | 0.00 | 0.00 | 0.00 | 10 | 1013.5 |
| 20260831215504 | 93 | 284 | 1.7 | 7.8 | 0.00 | 0.00 | 0.00 | 10 | 1013.5 |
| 20260831215002 | 93 | 42 | 3.5 | 7.8 | 0.00 | 0.00 | 0.00 | 10 | 1013.6 |
| 20260831214501 | 93 | 347 | 3.5 | 7.8 | 0.00 | 0.00 | 0.00 | 10 | 1013.7 |
| 20260831214103 | 92 | 17 | 4.3 | 7.8 | 0.00 | 0.00 | 0.00 | 10 | 1013.7 |
| 20260831213559 | 93 | 73 | 2.6 | 6.1 | 0.00 | 0.00 | 0.00 | 10 | 1013.9 |
| 20260831213059 | 92 | 56 | 1.7 | 7.8 | 0.00 | 0.00 | 0.00 | 10 | 1014.0 |
| 20260831212600 | 91 | 355 | 0.9 | 7.8 | 0.00 | 0.00 | 0.00 | 10 | 1014.1 |
| 20260831212100 | 90 | 14 | 3.5 | 7.8 | 0.00 | 0.00 | 0.00 | 10 | 1014.2 |
| 20260831211608 | 91 | 262 | 2.6 | 7.0 | 0.00 | 0.00 | 0.00 | 10 | 1014.2 |
| 20260831211056 | 93 | 294 | 0.9 | 7.8 | 0.00 | 0.00 | 0.00 | 9 | 1014.3 |
| 20260831210555 | 93 | 55 | 2.6 | 7.8 | 0.00 | 0.00 | 0.00 | 10 | 1014.5 |
| 20260831210100 | 92 | 71 | 2.6 | 7.8 | 0.00 | 0.00 | 0.00 | 10 | 1014.5 |
| 20260831205554 | 92 | 67 | 2.6 | 10.4 | 0.00 | 0.00 | 0.00 | 10 | 1014.6 |
| 20260831205054 | 93 | 51 | 3.5 | 8.7 | 0.00 | 0.00 | 0.00 | 10 | 1014.6 |
| 20260831204552 | 93 | 345 | 2.6 | 6.1 | 0.00 | 0.00 | 0.00 | 10 | 1014.7 |
| 20260831204051 | 92 | 336 | 1.7 | 5.2 | 0.00 | 0.00 | 0.00 | 10 | 1014.7 |
| 20260831203549 | 91 | 325 | 1.7 | 7.8 | 0.00 | 0.00 | 0.00 | 10 | 1014.9 |
| 20260831203050 | 91 | 292 | 2.6 | 7.8 | 0.00 | 0.00 | 0.00 | 10 | 1014.9 |
| 20260831202547 | 91 | 32 | 1.7 | 7.8 | 0.00 | 0.00 | 0.00 | 10 | 1015.0 |
| 20260831202047 | 90 | 34 | 0.9 | 7.0 | 0.00 | 0.00 | 0.00 | 11 | 1015.2 |
| 20260831201546 | 88 | 355 | 2.6 | 5.2 | 0.00 | 0.00 | 0.00 | 11 | 1015.2 |
| 20260831201046 | 88 | 323 | 0.9 | 5.2 | 0.00 | 0.00 | 0.00 | 10 | 1015.4 |
| 20260831200545 | 89 | 46 | 1.7 | 7.8 | 0.00 | 0.00 | 0.00 | 10 | 1015.5 |
| 20260831200044 | 89 | 348 | 1.7 | 8.7 | 0.00 | 0.00 | 0.00 | 10 | 1015.6 |
| 20260831195546 | 90 | 42 | 1.7 | 8.7 | 0.00 | 0.00 | 0.00 | 10 | 1015.7 |
| 20260831195044 | 89 | 5 | 1.7 | 5.2 | 0.00 | 0.00 | 0.00 | 10 | 1015.7 |
| 20260831194554 | 89 | 69 | 1.7 | 8.7 | 0.00 | 0.00 | 0.00 | 10 | 1015.9 |
| 20260831194040 | 89 | 110 | 2.6 | 8.7 | 0.00 | 0.00 | 0.00 | 10 | 1016.0 |
| 20260831193543 | 90 | 68 | 1.7 | 5.2 | 0.00 | 0.00 | 0.00 | 10 | 1016.2 |
| 20260831193048 | 89 | 107 | 1.7 | 4.3 | 0.00 | 0.00 | 0.00 | 11 | 1016.2 |
| 20260831192536 | 88 | 139 | 1.7 | 4.3 | 0.00 | 0.00 | 0.00 | 11 | 1016.3 |
| 20260831192035 | 88 | 303 | 1.7 | 5.2 | 0.00 | 0.00 | 0.00 | 11 | 1016.4 |
| 20260831191545 | 86 | 11 | 0.9 | 5.2 | 0.00 | 0.00 | 0.00 | 12 | 1016.4 |
| 20260831191037 | 85 | 258 | 0.9 | 7.0 | 0.00 | 0.00 | 0.00 | 12 | 1016.5 |
| 20260831190533 | 87 | 46 | 1.7 | 7.0 | 0.00 | 0.00 | 0.00 | 12 | 1016.6 |
| 20260831190032 | 86 | 50 | 0.0 | 5.2 | 0.00 | 0.00 | 0.00 | 12 | 1016.6 |
| 20260831185531 | 86 | 155 | 0.9 | 5.2 | 0.00 | 0.00 | 0.00 | 12 | 1016.7 |
| 20260831185029 | 85 | 51 | 1.7 | 6.1 | 0.00 | 0.00 | 0.00 | 13 | 1016.8 |
| 20260831184528 | 85 | 135 | 0.9 | 7.0 | 0.00 | 0.00 | 0.00 | 13 | 1016.9 |
| 20260831184027 | 85 | 108 | 1.7 | 7.0 | 0.00 | 0.00 | 0.00 | 13 | 1017.0 |
| 20260831183527 | 84 | 247 | 1.7 | 4.3 | 0.00 | 0.00 | 0.00 | 13 | 1017.0 |
| 20260831183029 | 85 | 213 | 1.7 | 4.3 | 0.00 | 0.00 | 0.00 | 13 | 1017.2 |
| 20260831182525 | 85 | 27 | 0.0 | 6.1 | 0.00 | 0.00 | 0.00 | 13 | 1017.3 |
| 20260831182024 | 83 | 32 | 0.9 | 7.0 | 0.00 | 0.00 | 0.00 | 14 | 1017.3 |
| 20260831181524 | 83 | 69 | 3.5 | 7.0 | 0.00 | 0.00 | 0.00 | 14 | 1017.4 |
| 20260831181023 | 84 | 184 | 0.9 | 3.5 | 0.00 | 0.00 | 0.00 | 15 | 1017.4 |
| 20260831180526 | 84 | 69 | 1.7 | 4.3 | 0.00 | 0.00 | 0.00 | 15 | 1017.5 |
| 20260831180021 | 84 | 99 | 1.7 | 5.2 | 0.00 | 0.00 | 0.00 | 16 | 1017.5 |
| 20260831175521 | 83 | 5 | 0.9 | 3.5 | 0.00 | 0.00 | 0.00 | 16 | 1017.5 |
| 20260831175020 | 84 | 67 | 1.7 | 4.3 | 0.00 | 0.00 | 0.00 | 16 | 1017.6 |
| 20260831174519 | 83 | 348 | 1.7 | 4.3 | 0.00 | 0.00 | 0.00 | 17 | 1017.6 |
| 20260831174018 | 83 | 74 | 0.9 | 4.3 | 0.00 | 0.00 | 0.00 | 16 | 1017.6 |
| 20260831173518 | 82 | 288 | 1.7 | 4.3 | 0.00 | 0.00 | 0.00 | 16 | 1017.6 |
| 20260831173022 | 82 | 20 | 1.7 | 3.5 | 0.00 | 0.00 | 0.00 | 17 | 1017.6 |
| 20260831172515 | 81 | 346 | 1.7 | 3.5 | 0.00 | 0.00 | 0.00 | 18 | 1017.7 |
| 20260831172019 | 81 | 355 | 0.0 | 4.3 | 0.00 | 0.00 | 0.00 | 19 | 1017.7 |
| 20260831171515 | 80 | 360 | 2.6 | 4.3 | 0.00 | 0.00 | 0.00 | 19 | 1017.8 |
| 20260831171012 | 80 | 14 | 1.7 | 4.3 | 0.00 | 0.00 | 0.00 | 19 | 1017.8 |
| 20260831170511 | 79 | 63 | 1.7 | 4.3 | 0.00 | 0.00 | 0.00 | 20 | 1017.7 |
| 20260831170009 | 78 | 31 | 1.7 | 4.3 | 0.00 | 0.00 | 0.00 | 21 | 1017.7 |
| 20260831165508 | 77 | 24 | 0.9 | 5.2 | 0.00 | 0.00 | 0.00 | 21 | 1017.8 |
| 20260831165006 | 76 | 345 | 0.0 | 5.2 | 0.00 | 0.00 | 0.00 | 23 | 1017.7 |
| 20260831164506 | 76 | 350 | 2.6 | 5.2 | 0.00 | 0.00 | 0.00 | 22 | 1017.8 |
| 20260831164004 | 74 | 5 | 2.6 | 5.2 | 0.00 | 0.00 | 0.00 | 23 | 1017.8 |
| 20260831163504 | 73 | 259 | 0.9 | 6.1 | 0.00 | 0.00 | 0.00 | 24 | 1017.8 |
| 20260831163007 | 73 | 38 | 2.6 | 6.1 | 0.00 | 0.00 | 0.00 | 24 | 1017.8 |
| 20260831162504 | 72 | 271 | 0.9 | 7.0 | 0.00 | 0.00 | 0.00 | 25 | 1017.8 |
| 20260831162003 | 72 | 258 | 3.5 | 7.8 | 0.00 | 0.00 | 0.00 | 25 | 1017.8 |
| 20260831161503 | 72 | 238 | 3.5 | 7.8 | 0.00 | 0.00 | 0.00 | 25 | 1017.9 |
| 20260831161003 | 72 | 206 | 1.7 | 7.0 | 0.00 | 0.00 | 0.00 | 24 | 1017.9 |
| 20260831160505 | 73 | 17 | 0.0 | 2.6 | 0.00 | 0.00 | 0.00 | 25 | 1017.9 |
| 20260831160001 | 72 | 46 | 0.0 | 2.6 | 0.00 | 0.00 | 0.00 | 26 | 1018.1 |
| 20260831155602 | 71 | 47 | 0.9 | 2.6 | 0.00 | 0.00 | 0.00 | 26 | 1018.2 |
| 20260831155059 | 70 | 15 | 0.0 | 1.7 | 0.00 | 0.00 | 0.00 | 26 | 1018.2 |
| 20260831154619 | 70 | 44 | 0.0 | 1.7 | 0.00 | 0.00 | 0.00 | 27 | 1018.3 |
| 20260831154057 | 69 | 46 | 0.0 | 2.6 | 0.00 | 0.00 | 0.00 | 27 | 1018.3 |
| 20260831153556 | 68 | 33 | 0.9 | 3.5 | 0.00 | 0.00 | 0.00 | 27 | 1018.3 |
| 20260831153058 | 68 | 38 | 0.0 | 3.5 | 0.00 | 0.00 | 0.00 | 27 | 1018.3 |
| 20260831152558 | 67 | 49 | 0.0 | 1.7 | 0.00 | 0.00 | 0.00 | 27 | 1018.3 |
| 20260831152056 | 66 | 44 | 0.0 | 1.7 | 0.00 | 0.00 | 0.00 | 27 | 1018.4 |
| 20260831151610 | 66 | 44 | 0.0 | 1.7 | 0.00 | 0.00 | 0.00 | 28 | 1018.4 |
| 20260831151056 | 65 | 40 | 0.0 | 1.7 | 0.00 | 0.00 | 0.00 | 28 | 1018.4 |
| 20260831150556 | 64 | 40 | 0.0 | 1.7 | 0.00 | 0.00 | 0.00 | 28 | 1018.4 |
| 20260831150056 | 64 | 41 | 0.0 | 1.7 | 0.00 | 0.00 | 0.00 | 27 | 1018.4 |
| 20260831145555 | 63 | 55 | 0.0 | 1.7 | 0.00 | 0.00 | 0.00 | 27 | 1018.4 |
| 20260831145054 | 63 | 59 | 0.0 | 1.7 | 0.00 | 0.00 | 0.00 | 27 | 1018.4 |
| 20260831144554 | 62 | 51 | 0.0 | 1.7 | 0.00 | 0.00 | 0.00 | 27 | 1018.3 |
| 20260831144054 | 61 | 57 | 0.0 | 1.7 | 0.00 | 0.00 | 0.00 | 28 | 1018.2 |
| 20260831143554 | 61 | 37 | 0.9 | 1.7 | 0.00 | 0.00 | 0.00 | 29 | 1018.2 |
| 20260831143105 | 61 | 30 | 0.0 | 1.7 | 0.00 | 0.00 | 0.00 | 30 | 1018.2 |
| 20260831142554 | 61 | 46 | 0.0 | 1.7 | 0.00 | 0.00 | 0.00 | 30 | 1018.2 |
| 20260831142057 | 61 | 31 | 0.0 | 2.6 | 0.00 | 0.00 | 0.00 | 31 | 1018.2 |
| 20260831141553 | 62 | 355 | 0.0 | 3.5 | 0.00 | 0.00 | 0.00 | 30 | 1018.1 |
| 20260831141053 | 63 | 34 | 0.9 | 7.0 | 0.00 | 0.00 | 0.00 | 29 | 1018.1 |
| 20260831140552 | 65 | 64 | 0.9 | 7.8 | 0.00 | 0.00 | 0.00 | 28 | 1018.1 |
| 20260831140052 | 65 | 248 | 3.5 | 10.4 | 0.00 | 0.00 | 0.00 | 28 | 1017.9 |
| 20260831135552 | 65 | 259 | 3.5 | 10.4 | 0.00 | 0.00 | 0.00 | 28 | 1017.8 |
| 20260831135052 | 65 | 240 | 6.1 | 10.4 | 0.00 | 0.00 | 0.00 | 28 | 1017.8 |
| 20260831134558 | 64 | 238 | 4.3 | 10.4 | 0.00 | 0.00 | 0.00 | 28 | 1017.8 |
| 20260831134050 | 64 | 252 | 4.3 | 11.3 | 0.00 | 0.00 | 0.00 | 28 | 1017.8 |
| 20260831133550 | 64 | 236 | 5.2 | 11.3 | 0.00 | 0.00 | 0.00 | 28 | 1017.7 |
| 20260831133050 | 65 | 250 | 5.2 | 10.4 | 0.00 | 0.00 | 0.00 | 27 | 1017.6 |
| 20260831132552 | 65 | 262 | 4.3 | 9.6 | 0.00 | 0.00 | 0.00 | 27 | 1017.6 |
| 20260831132050 | 65 | 246 | 3.5 | 9.6 | 0.00 | 0.00 | 0.00 | 28 | 1017.6 |
| 20260831131606 | 65 | 212 | 2.6 | 7.0 | 0.00 | 0.00 | 0.00 | 28 | 1017.5 |
| 20260831131049 | 65 | 172 | 1.7 | 7.8 | 0.00 | 0.00 | 0.00 | 28 | 1017.6 |
| 20260831130549 | 65 | 49 | 2.6 | 7.8 | 0.00 | 0.00 | 0.00 | 27 | 1017.5 |
| 20260831130105 | 65 | 208 | 0.9 | 5.2 | 0.00 | 0.00 | 0.00 | 27 | 1017.5 |
| 20260831125549 | 65 | 304 | 0.9 | 7.0 | 0.00 | 0.00 | 0.00 | 27 | 1017.5 |
| 20260831125048 | 66 | 271 | 0.9 | 7.8 | 0.00 | 0.00 | 0.00 | 26 | 1017.5 |
| 20260831124551 | 66 | 253 | 2.6 | 8.7 | 0.00 | 0.00 | 0.00 | 26 | 1017.5 |
| 20260831124048 | 66 | 217 | 3.5 | 8.7 | 0.00 | 0.00 | 0.00 | 26 | 1017.5 |
| 20260831123548 | 66 | 238 | 3.5 | 10.4 | 0.00 | 0.00 | 0.00 | 26 | 1017.5 |
| 20260831123050 | 66 | 238 | 3.5 | 10.4 | 0.00 | 0.00 | 0.00 | 26 | 1017.5 |
| 20260831122547 | 66 | 232 | 5.2 | 10.4 | 0.00 | 0.00 | 0.00 | 26 | 1017.5 |
| 20260831122047 | 66 | 208 | 5.2 | 9.6 | 0.00 | 0.00 | 0.00 | 26 | 1017.5 |
| 20260831121552 | 66 | 211 | 3.5 | 7.8 | 0.00 | 0.00 | 0.00 | 25 | 1017.5 |
| 20260831121047 | 66 | 244 | 3.5 | 7.8 | 0.00 | 0.00 | 0.00 | 25 | 1017.5 |
| 20260831120547 | 66 | 193 | 4.3 | 7.8 | 0.00 | 0.00 | 0.00 | 25 | 1017.5 |
| 20260831120046 | 66 | 208 | 3.5 | 8.7 | 0.00 | 0.00 | 0.00 | 25 | 1017.6 |
| 20260831115545 | 66 | 252 | 3.5 | 8.7 | 0.00 | 0.00 | 0.00 | 25 | 1017.7 |
| 20260831115045 | 66 | 234 | 2.6 | 7.0 | 0.00 | 0.00 | 0.00 | 26 | 1017.7 |
| 20260831114544 | 66 | 205 | 2.6 | 5.2 | 0.00 | 0.00 | 0.00 | 25 | 1017.8 |
| 20260831114044 | 66 | 180 | 3.5 | 5.2 | 0.00 | 0.00 | 0.00 | 25 | 1017.8 |
| 20260831113544 | 66 | 228 | 2.6 | 7.8 | 0.00 | 0.00 | 0.00 | 25 | 1017.8 |
| 20260831113044 | 66 | 237 | 3.5 | 8.7 | 0.00 | 0.00 | 0.00 | 25 | 1017.9 |
| 20260831112543 | 67 | 232 | 3.5 | 8.7 | 0.00 | 0.00 | 0.00 | 25 | 1017.9 |
| 20260831112045 | 67 | 230 | 4.3 | 9.6 | 0.00 | 0.00 | 0.00 | 25 | 1017.9 |
| 20260831111543 | 67 | 236 | 6.1 | 9.6 | 0.00 | 0.00 | 0.00 | 25 | 1018.0 |
| 20260831111042 | 67 | 236 | 4.3 | 9.6 | 0.00 | 0.00 | 0.00 | 25 | 1018.1 |
| 20260831110542 | 67 | 226 | 4.3 | 8.7 | 0.00 | 0.00 | 0.00 | 25 | 1018.0 |
| 20260831110043 | 67 | 217 | 3.5 | 8.7 | 0.00 | 0.00 | 0.00 | 25 | 1018.1 |
| 20260831105541 | 67 | 231 | 4.3 | 7.8 | 0.00 | 0.00 | 0.00 | 25 | 1018.1 |
| 20260831105041 | 67 | 256 | 4.3 | 7.8 | 0.00 | 0.00 | 0.00 | 25 | 1018.1 |
| 20260831104541 | 67 | 256 | 2.6 | 6.1 | 0.00 | 0.00 | 0.00 | 25 | 1018.2 |
| 20260831104040 | 67 | 268 | 1.7 | 6.1 | 0.00 | 0.00 | 0.00 | 25 | 1018.2 |
| 20260831103543 | 67 | 259 | 1.7 | 6.1 | 0.00 | 0.00 | 0.00 | 24 | 1018.2 |
| 20260831103044 | 67 | 229 | 2.6 | 7.0 | 0.00 | 0.00 | 0.00 | 24 | 1018.3 |
| 20260831102539 | 67 | 248 | 2.6 | 6.1 | 0.00 | 0.00 | 0.00 | 25 | 1018.3 |
| 20260831102040 | 67 | 222 | 1.7 | 7.0 | 0.00 | 0.00 | 0.00 | 25 | 1018.2 |
| 20260831101539 | 67 | 283 | 3.5 | 7.0 | 0.00 | 0.00 | 0.00 | 24 | 1018.2 |
| 20260831101039 | 67 | 261 | 2.6 | 7.0 | 0.00 | 0.00 | 0.00 | 25 | 1018.2 |
| 20260831100539 | 67 | 258 | 4.3 | 7.0 | 0.00 | 0.00 | 0.00 | 24 | 1018.2 |
| 20260831100058 | 67 | 268 | 4.3 | 7.0 | 0.00 | 0.00 | 0.00 | 25 | 1018.2 |
| 20260831095538 | 67 | 270 | 1.7 | 3.5 | 0.00 | 0.00 | 0.00 | 25 | 1018.2 |
| 20260831095037 | 68 | 279 | 0.9 | 3.5 | 0.00 | 0.00 | 0.00 | 24 | 1018.2 |
| 20260831094537 | 68 | 254 | 1.7 | 5.2 | 0.00 | 0.00 | 0.00 | 24 | 1018.2 |
| 20260831094037 | 68 | 236 | 1.7 | 6.1 | 0.00 | 0.00 | 0.00 | 23 | 1018.2 |
| 20260831093537 | 69 | 229 | 3.5 | 7.8 | 0.00 | 0.00 | 0.00 | 23 | 1018.3 |
| 20260831093045 | 69 | 243 | 4.3 | 7.8 | 0.00 | 0.00 | 0.00 | 23 | 1018.3 |
| 20260831092537 | 69 | 253 | 2.6 | 8.7 | 0.00 | 0.00 | 0.00 | 23 | 1018.2 |
| 20260831092036 | 69 | 239 | 3.5 | 11.3 | 0.00 | 0.00 | 0.00 | 22 | 1018.2 |
| 20260831091538 | 70 | 238 | 4.3 | 11.3 | 0.00 | 0.00 | 0.00 | 22 | 1018.2 |
| 20260831091035 | 70 | 215 | 4.3 | 9.6 | 0.00 | 0.00 | 0.00 | 22 | 1018.2 |
| 20260831090535 | 70 | 216 | 5.2 | 10.4 | 0.00 | 0.00 | 0.00 | 22 | 1018.2 |
| 20260831090035 | 70 | 229 | 5.2 | 9.6 | 0.00 | 0.00 | 0.00 | 22 | 1018.2 |
| 20260831085535 | 70 | 219 | 4.3 | 8.7 | 0.00 | 0.00 | 0.00 | 22 | 1018.2 |
| 20260831085036 | 69 | 218 | 4.3 | 8.7 | 0.00 | 0.00 | 0.00 | 23 | 1018.2 |
| 20260831084536 | 69 | 233 | 6.1 | 9.6 | 0.00 | 0.00 | 0.00 | 23 | 1018.3 |
| 20260831084031 | 68 | 233 | 3.5 | 8.7 | 0.00 | 0.00 | 0.00 | 24 | 1018.3 |
| 20260831083529 | 65 | 229 | 1.7 | 7.0 | 0.00 | 0.00 | 0.00 | 25 | 1018.4 |
| 20260831083028 | 63 | 194 | 0.9 | 3.5 | 0.00 | 0.00 | 0.00 | 27 | 1018.4 |
| 20260831082531 | 62 | 229 | 0.0 | 2.6 | 0.00 | 0.00 | 0.00 | 25 | 1018.4 |
| 20260831082028 | 62 | 221 | 0.9 | 1.7 | 0.00 | 0.00 | 0.00 | 25 | 1018.4 |
| 20260831081534 | 62 | 215 | 0.0 | 2.6 | 0.00 | 0.00 | 0.00 | 25 | 1018.4 |